Regional Weather Roundup
Issued by NWS State College, PA

Home | Current Version | Previous Version | Graphics & Text | Print | Product List | Glossary On
Versions: 1 2 3 4 5 6 7 8 9 10 11 12 13 14 15 16 17 18 19 20 21 22 23 24 25 26 27 28 29 30 31 32 33 34 35 36 37 38 39 40 41 42 43 44 45 46 47 48 49 50
000
ASUS41 KCTP 301003
RWRCTP

REGIONAL WEATHER ROUNDUP
NATIONAL WEATHER SERVICE STATE COLLEGE PA
600 AM EDT SAT MAY 30 2015

Note: "fair" indicates few or no clouds below 12,000 feet with no
significant weather and/or obstructions to visibility.

* = STATION THAT DOES NOT REPORT PRECIPITATION /E.G. RAIN...SNOW...ETC/
    THUNDER OR FOG.

PAZ002>004-007>009-013>016-020>023-029>032-301100-
WESTERN PENNSYLVANIA

CITY           SKY/WX    TMP DP  RH WIND       PRES   REMARKS
ERIE           MOCLDY    73  63  70 S15       30.03R
MEADVILLE      LGT RAIN  67  63  87 VRB5      30.09R
FRANKLIN*      PTCLDY    64  61  88 S6        30.12R
NEW CASTLE     PTSUNNY   69  64  84 CALM      30.11R
BEAVER COUNTY  NOT AVBL
BUTLER*        CLEAR     66  63  88 SW6       30.13R
PITTSBURGH INT MOCLDY    68  63  84 S6        30.11R
PITTSBURGH     PTCLDY    67  60  78 S6        30.11R
INDIANA*       PTCLDY    66  64  94 CALM      30.17R
LATROBE        PTCLDY    68  64  88 SW5       30.14R
WASHINGTON CO* PTCLDY    64  61  88 CALM      30.14R
$$

PAZ004>006-010>012-017>019-024>028-033>037-041-042-045-046-049>053-301100-
CENTRAL PENNSYLVANIA

CITY           SKY/WX    TMP DP  RH WIND       PRES   REMARKS
BRADFORD       CLOUDY    65  62  90 S3        30.14S
DUBOIS         MOCLDY    67  62  84 S3        30.13S
CLEARFIELD     FOG       61  60  97 N3        30.15R VSB 1/4
JOHNSTOWN      CLOUDY    66  60  81 S6        30.17S
ALTOONA        PTCLDY    64  62  93 CALM      30.17R
STATE COLLEGE  CLEAR     68  64  88 SW6       30.15R
WILLIAMSPORT   MOCLDY    73  65  75 VRB5      30.12R
SELINSGROVE    CLOUDY    72  65  78 S8        30.15S
FT INDIANTOWN  MOCLDY    65  65 100 CALM      30.17S FOG
CAPITAL CITY   CLEAR     68  62  81 CALM      30.16S
HARRISBURG     PTCLDY    70  64  81 S5        30.16R
YORK           CLEAR     67  63  87 CALM      30.17S
$$

PAZ038>040-043-044-047-048-054-055-060>062-067>071-301100-
EASTERN PENNSYLVANIA

CITY           SKY/WX    TMP DP  RH WIND       PRES   REMARKS
SCRANTON       MOCLDY    69  64  84 SW3       30.17R
MOUNT POCONO   CLOUDY    66  62  87 SW7       30.21S
ALLENTOWN      CLEAR     68  63  84 S3        30.19R
QUAKERTOWN*    CLOUDY    64  64 100 CALM      30.21R
READING        CLOUDY    69  65  86 SE6       30.17S
LANCASTER      MOCLDY    67  65  93 CALM      30.18S
COATESVILLE    CLOUDY    66  66 100 CALM      30.21R FOG
POTTSTOWN      CLOUDY    67  65  93 VRB5      30.21R
BLUE BELL      PTCLDY    68  64  88 S6        30.20R
DOYLESTOWN     CLEAR     65  32  29 S6        30.19S
WILLOW GROVE   NOT AVBL
NORTH PHILA    PTCLDY    68  62  81 S5        30.22R
PHILADELPHIA   MOCLDY    68  65  90 SE3       30.21R
$$



USA.gov is the U.S. government's official web portal to all federal, state and local government web resources and services.